(243336) = 2002 TR245 = 2008 TS165

Discovered at Mount Lemmon on 2008-10-04 by Mt. Lemmon Survey.

Orbit

Orbit type: Main Belt

Note: WebGL enabled browser required.

epoch2023-02-25.0
epoch JD2460000.5
perihelion date2020-01-25.44446
perihelion JD2458873.94446
argument of perihelion (°)31.41745
ascending node (°)38.05147
inclination (°)12.33332
eccentricity0.1016422
perihelion distance (AU)2.8192224
Tisserand w.r.t. Jupiter3.2
ΔV w.r.t. Earth (km/sec)11.1
semimajor axis (AU)3.1381956
mean anomaly (°)199.72684
mean daily motion (°/day)0.17728980
aphelion distance (AU)3.457
period (years)5.56
P-vector [x]0.35813044
P-vector [y]0.80622454
P-vector [z]0.47089763
Q-vector [x]-0.92434269
Q-vector [y]0.23503781
Q-vector [z]0.30057915
absolute magnitude15.52
phase slope0.15
uncertainty0
referenceMPO 745323
observations used442
oppositions13
arc length (days)7560
first opposition used2002
last opposition used2023
residual rms (arc-secs)0.72
perturbers coarse indicatorM-v
perturbers precise indicator003Ek
first observation date used2002-10-09.0
last observation date used2023-06-21.0
computer nameMPCLINUX
JD of orbit computation2456670.861443
perihelion JD uncertainty (days)3.2417E-04
argument of perihelion uncertainty (°)6.3659E-05
ascending node uncertainty (°)2.7632E-05
inclination uncertainty (°)1.3431E-05
eccentricity uncertainty 1.1181E-07
perihelion distance uncertainty (AU)3.8359E-07
Minimum Orbit Intersection Distances (in AU)
for orbit epoch: 2460000.5, reference: E2023-M85
Mercury2.51165
Venus2.10441
Earth1.83886
Mars1.30219
Jupiter1.95112
Saturn6.29605
Uranus15.2347
Neptune26.9029

Observations

452 total observations over interval: 2002 10 09.27003 – 2023 06 21.465025
These data are available for download (format description).

Date (UT) J2000 RA J2000 Dec Magn Location Ref
2002 10 09.27003 02 01 18.67 +08 02 02.4 19.2 R 699 – Lowell Observatory-LONEOS MPS 64211
2002 10 09.29113 02 01 17.74 +08 02 01.7   699 – Lowell Observatory-LONEOS MPS 64211
2002 10 09.31219 02 01 16.59 +08 02 00.6   699 – Lowell Observatory-LONEOS MPS 64211
2002 10 09.33321 02 01 15.57 +08 02 00.1   699 – Lowell Observatory-LONEOS MPS 64211
2002 10 11.19618 01 59 44.40 +08 00 26.6 20.0   644 – Palomar Mountain/NEAT MPS 64211
2002 10 11.25998 01 59 41.14 +08 00 23.4 19.3   644 – Palomar Mountain/NEAT MPS 64211
2002 10 11.32258 01 59 37.96 +08 00 20.4 19.6   644 – Palomar Mountain/NEAT MPS 64211
2002 11 25.11940 01 25 10.89 +07 55 43.8 20.9 V 291 – LPL/Spacewatch II MPS 270363
2002 11 25.14289 01 25 10.27 +07 55 46.0 20.5 V 291 – LPL/Spacewatch II MPS 270363
2002 11 25.16628 01 25 09.61 +07 55 48.5 20.7 V 291 – LPL/Spacewatch II MPS 270363
2005 04 01.26660 13 39 59.05 -04 42 25.3 20.0 V 691 – Steward Observatory, Kitt Peak-Spacewatch MPS 270363
2005 04 01.28471 13 39 58.20 -04 42 23.2 20.3 V 691 – Steward Observatory, Kitt Peak-Spacewatch MPS 270363
2005 04 01.30255 13 39 57.35 -04 42 21.1 20.2 V 691 – Steward Observatory, Kitt Peak-Spacewatch MPS 270363
2005 04 12.20065 13 31 12.38 -04 20 28.6 20.2 V 691 – Steward Observatory, Kitt Peak-Spacewatch MPS 270363
2005 04 12.21813 13 31 11.51 -04 20 26.6 20.5 V 691 – Steward Observatory, Kitt Peak-Spacewatch MPS 270363
2005 04 12.23554 13 31 10.61 -04 20 24.4 20.4 V 691 – Steward Observatory, Kitt Peak-Spacewatch MPS 270363
2005 05 07.18001 13 12 16.89 -03 49 41.6 20.7 V 691 – Steward Observatory, Kitt Peak-Spacewatch MPS 270363
2005 05 07.19614 13 12 16.25 -03 49 41.1 20.7 V 691 – Steward Observatory, Kitt Peak-Spacewatch MPS 270363
2005 05 07.21223 13 12 15.63 -03 49 40.6 20.5 V 691 – Steward Observatory, Kitt Peak-Spacewatch MPS 270363
2008 10 04.47155 04 49 12.03 +27 18 11.3 19.9 V G96 – Mt. Lemmon Survey MPS 270363
2008 10 04.47595 04 49 12.10 +27 18 12.9 19.9 V G96 – Mt. Lemmon Survey MPS 270363
2008 10 04.48030 04 49 12.10 +27 18 14.2 20.0 V G96 – Mt. Lemmon Survey MPS 270363
2008 10 04.48478 04 49 12.18 +27 18 15.5 19.8 V G96 – Mt. Lemmon Survey MPS 270363
2008 10 21.37954 04 48 09.93 +28 43 02.8 19.5 V G96 – Mt. Lemmon Survey MPS 270363
2008 10 21.38389 04 48 09.86 +28 43 03.7 19.1 V G96 – Mt. Lemmon Survey MPS 270363
2008 10 21.38823 04 48 09.75 +28 43 05.0 19.3 V G96 – Mt. Lemmon Survey MPS 270363
2008 10 21.39259 04 48 09.68 +28 43 06.2 19.0 V G96 – Mt. Lemmon Survey MPS 270363
2008 10 25.42012 04 46 42.78 +29 02 10.1 20.0 V 691 – Steward Observatory, Kitt Peak-Spacewatch MPS 270363
2008 10 25.43824 04 46 42.28 +29 02 15.9 19.9 V 691 – Steward Observatory, Kitt Peak-Spacewatch MPS 270363
2008 10 25.45594 04 46 41.85 +29 02 21.4 20.8 V 691 – Steward Observatory, Kitt Peak-Spacewatch MPS 270363
2008 10 29.41536 04 44 49.32 +29 20 20.9 19.8 V 691 – Steward Observatory, Kitt Peak-Spacewatch MPS 270363
2008 10 29.43312 04 44 48.67 +29 20 26.0 19.6 V 691 – Steward Observatory, Kitt Peak-Spacewatch MPS 270363
2008 10 29.45083 04 44 48.13 +29 20 28.9 20.3 V 691 – Steward Observatory, Kitt Peak-Spacewatch MPS 270363
2008 11 06.42158 04 39 44.68 +29 53 45.9 19.7 V 691 – Steward Observatory, Kitt Peak-Spacewatch MPS 270363
2008 11 06.43922 04 39 43.86 +29 53 49.9 19.8 V 691 – Steward Observatory, Kitt Peak-Spacewatch MPS 270363
2008 11 06.45685 04 39 43.06 +29 53 53.9 19.8 V 691 – Steward Observatory, Kitt Peak-Spacewatch MPS 270363
2008 11 21.32825 04 26 38.96 +30 40 44.7   704 – Lincoln Laboratory ETS, New Mexico MPS 407019
2008 11 21.34083 04 26 38.18 +30 40 45.9   704 – Lincoln Laboratory ETS, New Mexico MPS 407019
2008 11 21.35381 04 26 37.37 +30 40 48.3   704 – Lincoln Laboratory ETS, New Mexico MPS 407019
2008 11 21.36638 04 26 36.60 +30 40 49.6   704 – Lincoln Laboratory ETS, New Mexico MPS 407019
2008 11 21.37903 04 26 35.77 +30 40 51.5   704 – Lincoln Laboratory ETS, New Mexico MPS 407019
2008 12 06.22054 04 11 29.79 +31 02 25.3 19.0 V G96 – Mt. Lemmon Survey MPS 270363
2008 12 06.22517 04 11 29.50 +31 02 25.5 19.1 V G96 – Mt. Lemmon Survey MPS 270363
2008 12 06.22980 04 11 29.22 +31 02 25.8 19.1 V G96 – Mt. Lemmon Survey MPS 270363
2008 12 06.23448 04 11 28.93 +31 02 25.8 19.0 V G96 – Mt. Lemmon Survey MPS 270363
2008 12 07.26830 04 10 27.31 +31 02 59.7   704 – Lincoln Laboratory ETS, New Mexico MPS 407019
2008 12 07.28097 04 10 26.47 +31 03 00.0   704 – Lincoln Laboratory ETS, New Mexico MPS 407019
2008 12 07.29362 04 10 25.76 +31 03 00.8   704 – Lincoln Laboratory ETS, New Mexico MPS 407019
2008 12 07.30639 04 10 24.95 +31 03 01.5   704 – Lincoln Laboratory ETS, New Mexico MPS 407019
2008 12 23.91465 03 56 13.10 +30 59 47.5 19.3 V J75 – OAM Observatory, La Sagra MPS 270363
2008 12 23.92801 03 56 12.55 +30 59 47.0 18.8 V J75 – OAM Observatory, La Sagra MPS 270363
2008 12 23.94131 03 56 11.96 +30 59 46.4 19.7 V J75 – OAM Observatory, La Sagra MPS 270363
2010 02 17.31839 11 25 21.18 +20 27 52.0 20.9 V 703 – Catalina Sky Survey MPS 313494
2010 02 17.32649 11 25 20.92 +20 27 53.4 20.5 V 703 – Catalina Sky Survey MPS 313494
2010 02 17.33454 11 25 20.53 +20 27 56.7 20.3 V 703 – Catalina Sky Survey MPS 313494
2010 02 17.34244 11 25 20.17 +20 27 57.0 19.7 V 703 – Catalina Sky Survey MPS 313494
2010 05 24.010275 10 49 23.820 +17 18 37.62   C51 – WISE MPS 903703
2010 05 24.142579 10 49 27.42 +17 17 39.8   C51 – WISE MPS 329236
2010 05 24.407186 10 49 34.90 +17 15 40.9   C51 – WISE MPS 329236
2010 05 24.473403 10 49 36.84 +17 15 11.1   C51 – WISE MPS 329236
2010 05 24.605706 10 49 40.61 +17 14 13.8   C51 – WISE MPS 329236
2010 05 24.671795 10 49 42.54 +17 13 42.1   C51 – WISE MPS 329236
2010 05 24.737883 10 49 44.32 +17 13 15.6   C51 – WISE MPS 329236
2010 05 24.738010 10 49 44.36 +17 13 12.2   C51 – WISE MPS 329236
2010 05 24.870314 10 49 48.22 +17 12 14.1   C51 – WISE MPS 329236
2010 05 25.002491 10 49 52.00 +17 11 13.6   C51 – WISE MPS 329236
2010 05 25.134795 10 49 55.75 +17 10 15.5   C51 – WISE MPS 329236
2011 05 08.27001 15 09 53.49 -21 24 16.9 19.5 R H15 – ISON-NM Observatory, Mayhill MPS 382994
2011 05 08.28392 15 09 52.74 -21 24 16.7 19.5 R H15 – ISON-NM Observatory, Mayhill MPS 382994
2011 05 08.29750 15 09 52.00 -21 24 16.6 19.5 R H15 – ISON-NM Observatory, Mayhill MPS 382994
2011 05 08.31189 15 09 51.21 -21 24 16.4 19.6 R H15 – ISON-NM Observatory, Mayhill MPS 382994
2011 05 23.26587 14 57 05.86 -21 11 43.4 20.5 V G96 – Mt. Lemmon Survey MPS 383932
2011 05 23.27387 14 57 05.47 -21 11 42.7 20.2 V G96 – Mt. Lemmon Survey MPS 383932
2011 05 23.28192 14 57 05.11 -21 11 42.4 20.2 V G96 – Mt. Lemmon Survey MPS 383932
2011 05 23.29004 14 57 04.68 -21 11 41.9 20.2 V G96 – Mt. Lemmon Survey MPS 383932
2011 05 24.24449 14 56 18.70 -21 10 42.7 20.1 V G96 – Mt. Lemmon Survey MPS 383932
2011 05 24.25104 14 56 18.34 -21 10 42.3 20.6 V G96 – Mt. Lemmon Survey MPS 383932
2011 05 24.25751 14 56 18.02 -21 10 41.6 20.8 V G96 – Mt. Lemmon Survey MPS 383932
2011 05 24.26405 14 56 17.73 -21 10 41.4 20.5 V G96 – Mt. Lemmon Survey MPS 383932
2011 05 25.30397 14 55 28.12 -21 09 36.1 20.3 V G96 – Mt. Lemmon Survey MPS 383932
2011 05 25.31440 14 55 27.62 -21 09 35.2 20.3 V G96 – Mt. Lemmon Survey MPS 383932
2011 05 25.32481 14 55 27.08 -21 09 35.1 20.2 V G96 – Mt. Lemmon Survey MPS 383932
2011 05 25.33531 14 55 26.61 -21 09 34.2 20.2 V G96 – Mt. Lemmon Survey MPS 383932
2013 09 05.36616 01 24 52.60 -00 43 04.7 20.5 V 703 – Catalina Sky Survey MPS 475943
2013 09 05.37164 01 24 52.38 -00 43 05.8 20.8 V 703 – Catalina Sky Survey MPS 475943
2013 09 05.37726 01 24 52.24 -00 43 06.4 19.8 V 703 – Catalina Sky Survey MPS 475943
2013 09 05.38290 01 24 52.02 -00 43 05.5 21.2 V 703 – Catalina Sky Survey MPS 475943
2013 09 14.40155 01 20 14.56 -00 58 46.8 19.5 r I41 – Palomar Mountain--ZTF MPS 477477
2013 09 14.44901 01 20 12.79 -00 58 52.1 20.1 r I41 – Palomar Mountain--ZTF MPS 477477
2013 09 14.48574 01 20 11.41 -00 58 56.6 20.3 r I41 – Palomar Mountain--ZTF MPS 477477
2013 09 14.49338 01 20 11.289 -00 58 56.38 20.0 w F51 – Pan-STARRS 1, Haleakala MPS 477477
2013 09 14.50803 01 20 10.728 -00 58 58.05 19.9 w F51 – Pan-STARRS 1, Haleakala MPS 477477
